Погода в Кюсюре

Погода в Кюсюре : погода сейчас, прогноз погоды и архив. Всё, что Вы хотите узнать о погоде в Кюсюре!

Хотите узнать прогноз погоды в Кюсюре? Тогда Вам сюда: Погода в Кюсюре

Поиск расширенной информации на нашем сайте:

Другие новости

Новости СМИ2

Главная страница сайта

Новости сайта

02.10.2013

Напоминаем, что на нашем новом сайте вы можете получить высокодетализированные прогнозы погоды по пунктам России, СНГ и мира (включающие важные для авиации метеовеличины, такие как направление и скорость ветра, видимость, явления погоды, количество и форма облачности, нижняя и верхняя граница облачности), а также ознакомиться с разнообразными материалами по авиационной метеорологии и подборкой полезных ссылок на эту тему.

Сайт Метеоцентр.Азия посвящён разработке технологий оптимизации авиаметеорологического обслуживания, включая проектирование и перспективное создание нескольких автоматизированных авиаметеорологических систем:
- система выпуска высокодетальных прогностических карт явлений погоды для нижнего воздушного пространства по России и ближнему зарубежью;
- система верификации прогнозов TAF (выпускаемых синоптиками официальных АМСГ РФ и ближнего зарубежья) и AUTOTAF (выпускаемых сайтом Метеоцентр.Азия) - выявление ошибок, онлайн-сопоставление с фактической погодой METAR, автоматическое внесение коррективов в прогнозы при резком отклонении фактической погоды от прогноза, подсчёт оправдываемости прогнозов по элементам и в целом;
- система обработки, анализа и отображения авиаметеорологической информации для применения провайдерами метеорологической информации.


Погода в Кюсюре - сегодня

Время (UTC), дата Ветер
(°,м/с) 
Видим.   Явления Облачность Т
(°С)
Тd
(°С)
f(%) Тe
(°С)
Pmin
(гПа)
dP
(гПа)
Po
(мм)
O2
(г/м3)
Тmin Tmax R s Состояние
почвы
03 23.04.17 010 (С) 20000 м    4/0 средняя, верхняя 
[Ac trans|Ci fib]
-2.2 -6.5 72 -6  1024.9  0.4  765  312           
06 23.04.17 010 (С) 20000 м    8/0 средняя 
[Ac trans]
-1.2 -5.9 70 -4  1025.2  0.3  766  311           
09 23.04.17 020 (С) 20000 м    8/6 600 м средняя 
[Sc|Ac trans]
-1.4 -5.4 74 -4  1025.3  0.1  766  311           
12 23.04.17 040 (СВ) 20000 м    8/8 600 м 
[Sc]
-2.6 -5.9 78 -5  1025.6  0.3  766  312    -0.7       
15 23.04.17 050 (СВ) 20000 м    9/9 600 м 
[Sc]
-4.4 -6.4 86 -6  1025.3  -0.4  766  314           
18 23.04.17 050 (СВ) 20000 м    8/8 600 м 
[Sc]
-6.6 -7.4 94 -8  1025.2  -0.1  766  317           
21 23.04.17 040 (СВ) 20000 м    4/4 600 м 
[Sc]
-6.8 -7.7 93 -8  1025  -0.2  765  317           
00 24.04.17 190 (Ю) 20000 м    4/4 1000 м 
[Sc]
-3.3 -5.7 83 -3  1024.5  -0.5  765  313  -7.4      53  неравномерный
мокрый или
старый снег
100% 
03 24.04.17 280 (З) 20000 м    8/8 600 м 
[Sc]
-0.4 -5.9 66 1022.8  -1.6  764  309           
06 24.04.17 280 (З) 20000 м    8/8 600 м 
[Sc]
+2.2 -7.8 48 +3  1020.8  -1.9  762  306           
09 24.04.17 160 (Ю) 20000 м    8/8 600 м 
[Sc]
+2.1 -5.1 59 +1  1019.3  -1.5  761  305           
12 24.04.17 270 (З) 20000 м    4/4 600 м 
[Sc]
+1.7 -7 52 +2  1019.1  -0.2  761  306    +3.8       
15 24.04.17 170 (Ю) 20000 м    4/4 600 м 
[Sc]
-2.9 -10 58 -5  1019.1  -0.1  761  311           
18 24.04.17 190 (Ю) 20000 м    6/6 600 м 
[Sc]
-4.4 -10 65 -7  1019.2  0.1  761  313           
21 24.04.17 210 (ЮЗ) 10 км  слаб. снег  10/10 600 м 
[Sc]
-2.4 -6.4 74 -4  1019.6  0.4  761  310           
00 25.04.17 210 (ЮЗ) 20000 м  {снег}  9/9 600 м 
[Sc]
-0.2 -3.2 80 -2  1020.4  0.8  762  308  -5.4    0.0  53  неравномерный
мокрый или
старый снег
100% 
03 25.04.17 220 (ЮЗ) 20000 м    3/3 1000 м 
[Sc]
+1.4 -4.8 63 1020.6  0.2  762  306           
06 25.04.17 220 (ЮЗ) 20000 м    ясно 
+2.2 -6.5 53 +2  1020.5  762  305           
09 25.04.17 210 (ЮЗ) 20000 м    ясно 
+1.2 -5.8 60 +1  1020  -0.6  762  306           
12 25.04.17 тихо ()   20000 м    ясно 
-2.1 -7.9 64 -2  1018.7  -1.2  761  310    +3.6       
15 25.04.17 тихо ()   20000 м    ясно 
-6.1 -10.1 73 -6  1017.2  -1.6  760  314           
18 25.04.17 тихо ()   20000 м    ясно 
-11.6 -12.9 90 -12  1015.7  -1.6  758  320           
21 25.04.17 050 (СВ) 20000 м    ясно 
-12.4 -13.7 90 -14  1014.3  -1.4  757  321           
00 26.04.17 050 (СВ) 20000 м    4/0 средняя, верхняя 
[Ac trans|Ci fib]
-9 -11.9 79 -11  1012.4  -1.9  756  316  -13.6      53  неравномерный
мокрый или
старый снег
100% 
03 26.04.17 050 (СВ) 20000 м    3/0 средняя 
[Ac trans]
-1.4 -6.9 66 -2  1010.5  -1.7  755  306           
Время (UTC), дата Ветер
(°,м/с) 
Видим.   Явления Облачность Т
(°С)
Тd
(°С)
f(%) Тe
(°С)
Pmin
(гПа)
dP
(гПа)
Po
(мм)
O2
(г/м3)
Тmin Tmax R s Состояние
почвы

Для получения пояснительной информации подведите курсор к названию столбца.

ПОГОДА в Кюсюре - архив

Всё, что Вы хотите узнать о погоде в Кюсюре - удобно и подробно!

Выберите нужную дату (начиная с 1 января 2015* года) и нажмите кнопку "Найти".
Будут отображены архивные сводки погоды по пункту Кюсюр, начиная с указанной даты.


Отображать данные в формате CSV (для использования в таблицах Excel)


Внимание! Наш архив погоды предназначен исключительно для личного некоммерческого использования в познавательных целях. Если Вам необходимы официальные справки о состоянии погоды (для производственных, юридических, коммерческих и т.п. целей), обращайтесь в органы Росгидромета.

*Примечание: данная дата относится к архиву по метеостанциям СССР (Россия, СНГ, Балтия).
Архив по метеостанциям Зарубежной Европы и Азии (кроме Китая) хранится 10 дней, по другим регионам земного шара (Китай, Африка, Америка, Австралия, Океания) - 1 день.

Кюсюр - район местоположения метеостанции


Название, широта, долгота, высота метеостанции:
Кюсюр 70.7°ш. 127.4°д. 33 м над ур. моря [Российская Федерация]

Дополнительная информация

В oтличие oт бoльшинства пoгoдных сайтoв мы публикуем пoдрoбную метеoинфoрмацию в детальнoм прoфессиoнальнoм фoрмате.

Характеристики температуры и влажнoсти вoздуха измеряются на высoте 2 м в тени вдали oт зданий и деревьев.
Скoрoсть ветра измеряется на высoте 10 м (на урoвне рoста челoвека скoрoсть ветра ниже в 1.5-2 раза). Если метеoстанция нахoдится в гoрoде или в лесу, тo скoрoсть ветра занижена на 2-4 м/с пo сравнению с oткрытым местoм. Скoрoсть ветра над акватoриями крупных рек и oзёр, а также на вершинах хoлмoв на 2-5 м/с выше, чем в oбычных услoвиях.
Атмoсфернoе давление в разных тoчках местнoсти мoжет значительнo oтличаться oт давления на метеoстанции, в зависимoсти oт услoвий рельефа (при пoдъёме на 10 м давление пoнижается примернo на 1 мм рт.ст.).